Location: Unspecified
(34.7300°N, 0.0000°E)
Time: 04:52:18
(UTC+00:00)

SO-50 - Visible Passes

Search period start: 05 April 2026 00:00
Search period end: 15 April 2026 00:00
Orbit: 568 x 673 km, 64.6° (Epoch: 29 March)

Date Brightness Start Highest point End Pass type
(mag) Time Alt. Az. Time Alt. Az. Time Alt. Az.
5 Apr ? 19:39:58 10° NNE 19:42:03 13° NE 19:42:50 12° NE visible
5 Apr ? 21:17:50 10° NNW 21:20:00 27° NW 21:20:00 27° NW visible
6 Apr ? 19:56:14 10° N 20:00:05 24° NE 20:00:20 24° NE visible
6 Apr ? 21:35:48 10° NW 21:37:30 20° WNW 21:37:30 20° WNW visible
7 Apr ? 20:13:19 10° NNW 20:17:54 48° NE 20:17:54 48° NE visible
7 Apr ? 21:54:39 10° WNW 21:55:04 11° WNW 21:55:04 11° WNW visible
8 Apr ? 18:52:52 10° NNE 18:55:04 13° NE 18:57:13 10° ENE visible
8 Apr ? 20:30:49 10° NNW 20:35:31 77° WSW 20:35:31 77° WSW visible
9 Apr ? 19:09:10 10° N 19:13:05 24° NE 19:16:02 14° E visible
9 Apr ? 20:48:48 10° NW 20:53:04 34° WSW 20:53:14 33° WSW visible
10 Apr ? 19:26:16 10° NNW 19:30:54 49° ENE 19:33:50 21° SE visible
10 Apr ? 21:07:42 10° WNW 21:10:23 15° WSW 21:11:01 15° WSW visible
11 Apr ? 19:43:47 10° NNW 19:48:32 75° WSW 19:51:42 20° SSE visible
12 Apr ? 20:01:47 10° NW 20:05:59 33° WSW 20:09:40 12° S visible
13 Apr ? 20:20:43 10° WNW 20:23:18 15° WSW 20:25:49 10° SW visible
14 Apr ? 18:56:42 10° NNW 19:01:27 73° WSW 19:06:03 10° SSE visible
